Time,TemperatureF,DewpointF,PressureIn,WindDirection,WindDirectionDegrees,WindSpeedMPH,WindSpeedGustMPH,Humidity,HourlyPrecipIn,Conditions,Clouds,dailyrainin,SolarRadiationWatts/m^2,SoftwareType,DateUTC
2013-09-06 00:01:00,59.0,46.8,30.09,NNE,22,5.8,5.8,64,0.00,CLR,,0.00,0.0,WeatherDisplay:10.37,2013-09-05 22:01:00,
2013-09-06 00:06:00,59.0,46.8,30.09,WNW,292,3.5,3.5,64,0.00,CLR,,0.00,0.0,WeatherDisplay:10.37,2013-09-05 22:06:00,
2013-09-06 00:11:00,59.0,46.8,30.09,SSE,158,3.5,3.5,64,0.00,CLR,,0.00,0.0,WeatherDisplay:10.37,2013-09-05 22:11:00,
2013-09-06 00:16:00,59.2,46.6,30.09,SSE,158,4.6,4.6,63,0.00,CLR,,0.00,0.0,WeatherDisplay:10.37,2013-09-05 22:16:00,
2013-09-06 00:21:00,59.0,46.4,30.09,ENE,68,2.6,2.6,63,0.00,CLR,,0.00,0.0,WeatherDisplay:10.37,2013-09-05 22:21:00,
2013-09-06 00:26:00,59.0,46.4,30.09,ENE,68,6.9,6.9,63,0.00,CLR,,0.00,0.0,WeatherDisplay:10.37,2013-09-05 22:26:00,
2013-09-06 00:31:00,59.0,46.4,30.09,SSE,158,3.5,3.5,63,0.00,CLR,,0.00,0.0,WeatherDisplay:10.37,2013-09-05 22:31:00,
2013-09-06 00:36:00,58.8,46.2,30.09,North,0,3.5,3.5,63,0.00,CLR,,0.00,0.0,WeatherDisplay:10.37,2013-09-05 22:36:00,
2013-09-06 00:41:00,58.8,45.8,30.09,SSE,158,4.6,4.6,62,0.00,CLR,,0.00,0.0,WeatherDisplay:10.37,2013-09-05 22:41:00,
2013-09-06 00:46:00,58.8,45.8,30.09,NNE,22,3.3,3.3,62,0.00,CLR,,0.00,0.0,WeatherDisplay:10.37,2013-09-05 22:46:00,
2013-09-06 00:51:00,58.8,45.8,30.09,ENE,68,6.2,6.2,62,0.00,CLR,,0.00,0.0,WeatherDisplay:10.37,2013-09-05 22:51:00,
2013-09-06 00:56:00,58.8,45.8,30.09,NNE,22,5.8,5.8,62,0.00,CLR,,0.00,0.0,WeatherDisplay:10.37,2013-09-05 22:56:00,
2013-09-06 01:01:00,58.8,45.8,30.09,NNW,338,1.6,1.6,62,0.00,CLR,,0.00,0.0,WeatherDisplay:10.37,2013-09-05 23:01:00,
2013-09-06 01:06:00,58.6,45.7,30.09,ENE,68,2.3,2.3,62,0.00,CLR,,0.00,0.0,WeatherDisplay:10.37,2013-09-05 23:06:00,
2013-09-06 01:11:00,58.5,45.5,30.09,ESE,112,4.6,4.6,62,0.00,CLR,,0.00,0.0,WeatherDisplay:10.37,2013-09-05 23:11:00,
2013-09-06 01:16:00,58.5,45.5,30.09,East,90,4.6,4.6,62,0.00,CLR,,0.00,0.0,WeatherDisplay:10.37,2013-09-05 23:16:00,
2013-09-06 01:21:00,58.5,45.5,30.09,ENE,68,4.6,4.6,62,0.00,CLR,,0.00,0.0,WeatherDisplay:10.37,2013-09-05 23:21:00,
2013-09-06 01:26:00,58.3,45.3,30.09,SSE,158,3.6,3.6,62,0.00,CLR,,0.00,0.0,WeatherDisplay:10.37,2013-09-05 23:26:00,
2013-09-06 01:31:00,58.3,44.9,30.09,SSE,158,3.5,3.5,61,0.00,CLR,,0.00,0.0,WeatherDisplay:10.37,2013-09-05 23:31:00,
2013-09-06 01:36:00,58.3,44.9,30.09,ENE,68,3.5,3.5,61,0.00,CLR,,0.00,0.0,WeatherDisplay:10.37,2013-09-05 23:36:00,
2013-09-06 01:41:00,58.3,45.3,30.09,NNE,22,2.3,2.3,62,0.00,CLR,,0.00,0.0,WeatherDisplay:10.37,2013-09-05 23:41:00,
2013-09-06 01:46:00,58.1,44.7,30.09,WNW,292,5.8,5.8,61,0.00,CLR,,0.00,0.0,WeatherDisplay:10.37,2013-09-05 23:46:00,
2013-09-06 01:51:00,58.1,44.7,30.09,ESE,112,3.6,3.6,61,0.00,CLR,,0.00,0.0,WeatherDisplay:10.37,2013-09-05 23:51:00,
2013-09-06 01:56:00,58.1,44.7,30.09,NW,315,5.8,5.8,61,0.00,CLR,,0.00,0.0,WeatherDisplay:10.37,2013-09-05 23:56:00,
2013-09-06 02:01:00,58.1,44.7,30.09,NNE,22,2.9,2.9,61,0.00,CLR,,0.00,0.0,WeatherDisplay:10.37,2013-09-06 00:01:00,
2013-09-06 02:06:00,58.1,44.7,30.09,ENE,68,3.5,3.5,61,0.00,CLR,,0.00,0.0,WeatherDisplay:10.37,2013-09-06 00:06:00,
2013-09-06 02:11:00,57.9,44.5,30.09,WNW,292,3.5,3.5,61,0.00,CLR,,0.00,0.0,WeatherDisplay:10.37,2013-09-06 00:11:00,
2013-09-06 02:16:00,57.7,44.4,30.09,NNE,22,4.0,4.0,61,0.00,CLR,,0.00,0.0,WeatherDisplay:10.37,2013-09-06 00:16:00,
2013-09-06 02:22:00,57.6,44.2,30.09,ENE,68,3.6,3.6,61,0.00,CLR,,0.00,0.0,WeatherDisplay:10.37,2013-09-06 00:22:00,
2013-09-06 02:27:00,57.6,44.2,30.09,SSW,202,4.6,4.6,61,0.00,CLR,,0.00,0.0,WeatherDisplay:10.37,2013-09-06 00:27:00,
2013-09-06 02:32:00,57.4,44.5,30.09,NNE,22,4.6,4.6,62,0.00,CLR,,0.00,0.0,WeatherDisplay:10.37,2013-09-06 00:32:00,
2013-09-06 02:37:00,57.2,44.3,30.09,ENE,68,4.6,4.6,62,0.00,CLR,,0.00,0.0,WeatherDisplay:10.37,2013-09-06 00:37:00,
2013-09-06 02:42:00,57.2,44.3,30.09,ESE,112,2.6,2.6,62,0.00,CLR,,0.00,0.0,WeatherDisplay:10.37,2013-09-06 00:42:00,
2013-09-06 02:47:00,57.2,44.3,30.09,ESE,112,3.1,3.1,62,0.00,CLR,,0.00,0.0,WeatherDisplay:10.37,2013-09-06 00:47:00,
2013-09-06 02:52:00,57.2,43.9,30.06,ENE,68,3.5,3.5,61,0.00,CLR,,0.00,0.0,WeatherDisplay:10.37,2013-09-06 00:52:00,
2013-09-06 02:57:00,57.2,43.9,30.06,SW,225,5.8,5.8,61,0.00,CLR,,0.00,0.0,WeatherDisplay:10.37,2013-09-06 00:57:00,
2013-09-06 03:02:00,57.2,44.3,30.06,ENE,68,2.6,2.6,62,0.00,CLR,,0.00,0.0,WeatherDisplay:10.37,2013-09-06 01:02:00,
2013-09-06 03:07:00,57.2,43.9,30.06,East,90,4.6,4.6,61,0.00,CLR,,0.00,0.0,WeatherDisplay:10.37,2013-09-06 01:07:00,
2013-09-06 03:12:00,57.2,44.3,30.06,WNW,292,3.5,3.5,62,0.00,CLR,,0.00,0.0,WeatherDisplay:10.37,2013-09-06 01:12:00,
2013-09-06 03:17:00,57.0,44.1,30.06,ESE,112,4.7,4.7,62,0.00,CLR,,0.00,0.0,WeatherDisplay:10.37,2013-09-06 01:17:00,
2013-09-06 03:22:00,56.8,44.0,30.06,North,0,4.6,4.6,62,0.00,CLR,,0.00,0.0,WeatherDisplay:10.37,2013-09-06 01:22:00,
2013-09-06 03:27:00,56.8,44.0,30.06,NE,45,3.5,3.5,62,0.00,CLR,,0.00,0.0,WeatherDisplay:10.37,2013-09-06 01:27:00,
2013-09-06 03:32:00,56.8,44.0,30.06,NNW,338,2.3,2.3,62,0.00,CLR,,0.00,0.0,WeatherDisplay:10.37,2013-09-06 01:32:00,
2013-09-06 03:37:00,56.8,44.0,30.06,SSW,202,2.3,2.3,62,0.00,CLR,,0.00,0.0,WeatherDisplay:10.37,2013-09-06 01:37:00,
2013-09-06 03:42:00,56.7,43.8,30.06,NE,45,2.3,2.3,62,0.00,CLR,,0.00,0.0,WeatherDisplay:10.37,2013-09-06 01:42:00,
2013-09-06 03:47:00,56.7,43.8,30.06,North,0,1.2,0.0,62,0.00,CLR,,0.00,0.0,WeatherDisplay:10.37,2013-09-06 01:47:00,
2013-09-06 03:52:00,56.5,44.0,30.06,NNW,338,1.6,0.0,63,0.00,CLR,,0.00,0.0,WeatherDisplay:10.37,2013-09-06 01:52:00,
2013-09-06 03:57:00,56.3,43.9,30.06,NNE,22,0.0,0.0,63,0.00,CLR,,0.00,0.0,WeatherDisplay:10.37,2013-09-06 01:57:00,
2013-09-06 04:02:00,55.9,43.5,30.06,NNW,338,0.0,0.0,63,0.00,CLR,,0.00,0.0,WeatherDisplay:10.37,2013-09-06 02:02:00,
2013-09-06 04:07:00,55.8,43.8,30.09,WNW,292,2.3,2.3,64,0.00,CLR,,0.00,0.0,WeatherDisplay:10.37,2013-09-06 02:07:00,
2013-09-06 04:12:00,55.4,43.4,30.09,NNW,338,2.3,2.3,64,0.00,CLR,,0.00,0.0,WeatherDisplay:10.37,2013-09-06 02:12:00,
2013-09-06 04:17:00,55.2,43.7,30.09,WNW,292,2.2,0.0,65,0.00,CLR,,0.00,0.0,WeatherDisplay:10.37,2013-09-06 02:17:00,
2013-09-06 04:22:00,55.0,43.5,30.09,South,180,0.0,0.0,65,0.00,CLR,,0.00,0.0,WeatherDisplay:10.37,2013-09-06 02:22:00,
2013-09-06 04:27:00,54.5,43.8,30.09,West,270,0.0,0.0,67,0.00,CLR,,0.00,0.0,WeatherDisplay:10.37,2013-09-06 02:27:00,
2013-09-06 04:32:00,54.3,43.6,30.09,West,270,0.0,0.0,67,0.00,CLR,,0.00,0.0,WeatherDisplay:10.37,2013-09-06 02:32:00,
2013-09-06 04:37:00,54.0,43.2,30.06,West,270,0.0,0.0,67,0.00,CLR,,0.00,0.0,WeatherDisplay:10.37,2013-09-06 02:37:00,
2013-09-06 04:42:00,53.6,43.3,30.06,West,270,0.0,0.0,68,0.00,CLR,,0.00,0.0,WeatherDisplay:10.37,2013-09-06 02:42:00,
2013-09-06 04:47:00,53.2,43.3,30.06,NW,315,0.0,0.0,69,0.00,CLR,,0.00,0.0,WeatherDisplay:10.37,2013-09-06 02:47:00,
2013-09-06 04:52:00,53.1,43.5,30.06,WNW,292,0.0,0.0,70,0.00,CLR,,0.00,0.0,WeatherDisplay:10.37,2013-09-06 02:52:00,
2013-09-06 04:57:00,52.7,43.2,30.06,West,270,0.0,0.0,70,0.00,CLR,,0.00,0.0,WeatherDisplay:10.37,2013-09-06 02:57:00,
2013-09-06 05:02:00,52.5,43.0,30.06,NNW,338,2.3,2.3,70,0.00,CLR,,0.00,0.0,WeatherDisplay:10.37,2013-09-06 03:02:00,
2013-09-06 05:07:00,52.3,43.2,30.06,NNW,338,2.3,2.3,71,0.00,CLR,,0.00,0.0,WeatherDisplay:10.37,2013-09-06 03:07:00,
2013-09-06 05:12:00,52.2,43.0,30.06,NNW,338,2.4,2.4,71,0.00,CLR,,0.00,0.0,WeatherDisplay:10.37,2013-09-06 03:12:00,
2013-09-06 05:17:00,52.0,43.2,30.06,NNW,338,2.3,2.3,72,0.00,CLR,,0.00,0.0,WeatherDisplay:10.37,2013-09-06 03:17:00,
2013-09-06 05:22:00,51.8,43.1,30.09,NNW,338,1.2,1.2,72,0.00,CLR,,0.00,0.0,WeatherDisplay:10.37,2013-09-06 03:22:00,
2013-09-06 05:27:00,51.8,43.1,30.09,NNW,338,0.0,0.0,72,0.00,CLR,,0.00,0.0,WeatherDisplay:10.37,2013-09-06 03:27:00,
2013-09-06 05:32:00,51.8,43.1,30.09,NNW,338,1.2,1.2,72,0.00,CLR,,0.00,0.0,WeatherDisplay:10.37,2013-09-06 03:32:00,
2013-09-06 05:37:00,51.8,43.1,30.09,WNW,292,2.3,2.3,72,0.00,CLR,,0.00,0.0,WeatherDisplay:10.37,2013-09-06 03:37:00,
2013-09-06 05:42:00,51.8,43.1,30.09,NNW,338,0.0,0.0,72,0.00,CLR,,0.00,0.0,WeatherDisplay:10.37,2013-09-06 03:42:00,
2013-09-06 05:47:00,51.8,43.1,30.09,WNW,292,2.3,2.3,72,0.00,CLR,,0.00,0.0,WeatherDisplay:10.37,2013-09-06 03:47:00,
2013-09-06 05:52:00,51.8,43.4,30.09,NNW,338,1.2,1.2,73,0.00,CLR,,0.00,0.0,WeatherDisplay:10.37,2013-09-06 03:52:00,
2013-09-06 05:57:00,51.6,43.2,30.09,NW,315,1.6,1.6,73,0.00,CLR,,0.00,0.0,WeatherDisplay:10.37,2013-09-06 03:57:00,
2013-09-06 06:01:00,51.6,43.2,30.09,WNW,292,0.0,0.0,73,0.00,OVC,,0.00,0.0,WeatherDisplay:10.37,2013-09-06 04:01:00,
2013-09-06 06:02:00,51.4,43.1,30.09,WNW,292,1.4,0.0,73,0.00,OVC,,0.00,0.0,WeatherDisplay:10.37,2013-09-06 04:02:00,
2013-09-06 06:07:00,51.4,43.1,30.09,NNW,338,1.2,0.0,73,0.00,OVC,,0.00,0.0,WeatherDisplay:10.37,2013-09-06 04:07:00,
2013-09-06 06:12:00,51.3,43.3,30.09,NNE,22,0.0,0.0,74,0.00,OVC,,0.00,0.0,WeatherDisplay:10.37,2013-09-06 04:12:00,
2013-09-06 06:17:00,51.1,43.1,30.09,NNW,338,2.3,2.3,74,0.00,OVC,,0.00,0.0,WeatherDisplay:10.37,2013-09-06 04:17:00,
2013-09-06 06:22:00,51.1,43.1,30.09,NNW,338,0.0,0.0,74,0.00,OVC,,0.00,0.0,WeatherDisplay:10.37,2013-09-06 04:22:00,
2013-09-06 06:27:00,51.1,43.4,30.09,NNW,338,0.0,0.0,75,0.00,OVC,,0.00,2.5,WeatherDisplay:10.37,2013-09-06 04:27:00,
2013-09-06 06:32:00,50.9,43.3,30.09,NW,315,2.3,2.3,75,0.00,OVC,,0.00,5.1,WeatherDisplay:10.37,2013-09-06 04:32:00,
2013-09-06 06:37:00,50.9,43.3,30.09,NNW,338,1.6,1.6,75,0.00,OVC,,0.00,7.8,WeatherDisplay:10.37,2013-09-06 04:37:00,
2013-09-06 06:42:00,50.9,43.3,30.09,NNW,338,1.4,1.4,75,0.00,OVC,,0.00,10.2,WeatherDisplay:10.37,2013-09-06 04:42:00,
2013-09-06 06:47:00,51.1,43.4,30.09,NNW,338,1.2,0.0,75,0.00,OVC,,0.00,12.9,WeatherDisplay:10.37,2013-09-06 04:47:00,
2013-09-06 06:52:00,51.1,43.4,30.09,NNW,338,2.3,0.0,75,0.00,OVC,,0.00,15.5,WeatherDisplay:10.37,2013-09-06 04:52:00,
2013-09-06 06:57:00,51.1,43.8,30.09,NNW,338,2.3,2.3,76,0.00,OVC,,0.00,18.3,WeatherDisplay:10.37,2013-09-06 04:57:00,
2013-09-06 07:02:00,51.1,43.8,30.09,NNW,338,0.0,0.0,76,0.00,OVC,,0.00,21.0,WeatherDisplay:10.37,2013-09-06 05:02:00,
2013-09-06 07:07:00,51.3,44.0,30.09,NNW,338,2.3,2.3,76,0.00,OVC,,0.00,23.6,WeatherDisplay:10.37,2013-09-06 05:07:00,
2013-09-06 07:12:00,51.6,44.6,30.09,NNW,338,1.2,1.2,77,0.00,OVC,,0.00,26.4,WeatherDisplay:10.37,2013-09-06 05:12:00,
2013-09-06 07:17:00,51.8,44.8,30.09,NNW,338,0.0,0.0,77,0.00,OVC,,0.00,29.0,WeatherDisplay:10.37,2013-09-06 05:17:00,
2013-09-06 07:22:00,52.0,45.3,30.09,NNW,338,0.0,0.0,78,0.00,OVC,,0.00,31.8,WeatherDisplay:10.37,2013-09-06 05:22:00,
2013-09-06 07:27:00,52.7,45.7,30.09,NNW,338,0.0,0.0,77,0.00,OVC,,0.00,34.5,WeatherDisplay:10.37,2013-09-06 05:27:00,
2013-09-06 07:32:00,53.4,46.0,30.09,NNE,22,2.3,2.3,76,0.00,OVC,,0.00,37.3,WeatherDisplay:10.37,2013-09-06 05:32:00,
2013-09-06 07:37:00,54.3,46.6,30.09,ENE,68,3.6,0.0,75,0.00,OVC,,0.00,40.1,WeatherDisplay:10.37,2013-09-06 05:37:00,
2013-09-06 07:42:00,55.2,46.7,30.09,ENE,68,2.3,2.3,73,0.00,OVC,,0.00,42.9,WeatherDisplay:10.37,2013-09-06 05:42:00,
2013-09-06 07:47:00,56.1,47.6,30.09,NNW,338,2.3,2.3,73,0.00,OVC,,0.00,45.7,WeatherDisplay:10.37,2013-09-06 05:47:00,
2013-09-06 07:52:00,56.7,47.7,30.09,SE,135,4.6,4.6,72,0.00,OVC,,0.00,48.5,WeatherDisplay:10.37,2013-09-06 05:52:00,
2013-09-06 07:57:00,57.2,47.9,30.09,ESE,112,3.5,3.5,71,0.00,OVC,,0.00,51.3,WeatherDisplay:10.37,2013-09-06 05:57:00,
2013-09-06 08:02:00,58.1,48.4,30.09,ENE,68,2.3,2.3,70,0.00,OVC,,0.00,54.0,WeatherDisplay:10.37,2013-09-06 06:02:00,
2013-09-06 08:07:00,58.5,48.3,30.09,NE,45,4.6,4.6,69,0.00,OVC,,0.00,56.8,WeatherDisplay:10.37,2013-09-06 06:07:00,
2013-09-06 08:12:00,59.0,48.4,30.09,NE,45,3.5,3.5,68,0.00,OVC,,0.00,59.6,WeatherDisplay:10.37,2013-09-06 06:12:00,
2013-09-06 08:17:00,59.4,48.4,30.09,NW,315,3.5,3.5,67,0.00,OVC,,0.00,62.4,WeatherDisplay:10.37,2013-09-06 06:17:00,
2013-09-06 08:22:00,59.7,48.7,30.09,NE,45,3.5,3.5,67,0.00,OVC,,0.00,65.2,WeatherDisplay:10.37,2013-09-06 06:22:00,
2013-09-06 08:27:00,60.1,49.1,30.09,ENE,68,3.5,3.5,67,0.00,OVC,,0.00,68.0,WeatherDisplay:10.37,2013-09-06 06:27:00,
2013-09-06 08:32:00,60.4,49.4,30.09,ENE,68,4.6,4.6,67,0.00,OVC,,0.00,70.8,WeatherDisplay:10.37,2013-09-06 06:32:00,
2013-09-06 08:37:00,60.8,49.4,30.09,ESE,112,2.9,2.9,66,0.00,OVC,,0.00,73.4,WeatherDisplay:10.37,2013-09-06 06:37:00,
2013-09-06 08:42:00,61.2,49.3,30.09,NE,45,4.6,4.6,65,0.00,OVC,,0.00,76.2,WeatherDisplay:10.37,2013-09-06 06:42:00,
2013-09-06 08:47:00,61.5,49.2,30.09,NNE,22,3.5,3.6,64,0.00,OVC,,0.00,78.9,WeatherDisplay:10.37,2013-09-06 06:47:00,
2013-09-06 08:52:00,61.9,49.1,30.09,ENE,68,3.5,3.5,63,0.00,OVC,,0.00,81.7,WeatherDisplay:10.37,2013-09-06 06:52:00,
2013-09-06 08:57:00,62.1,49.7,30.09,SE,135,5.8,5.8,64,0.00,OVC,,0.00,84.3,WeatherDisplay:10.37,2013-09-06 06:57:00,
2013-09-06 09:02:00,62.4,49.7,30.09,SSE,158,4.6,4.6,63,0.00,OVC,,0.00,87.0,WeatherDisplay:10.37,2013-09-06 07:02:00,
2013-09-06 09:07:00,62.6,49.0,30.09,ESE,112,5.8,5.8,61,0.00,OVC,,0.00,89.6,WeatherDisplay:10.37,2013-09-06 07:07:00,
2013-09-06 09:12:00,63.0,49.7,30.09,ESE,112,5.8,5.8,62,0.00,OVC,,0.00,92.2,WeatherDisplay:10.37,2013-09-06 07:12:00,
2013-09-06 09:17:00,63.1,49.9,30.09,NNE,22,5.8,5.8,62,0.00,OVC,,0.00,94.9,WeatherDisplay:10.37,2013-09-06 07:17:00,
2013-09-06 09:22:00,63.3,50.1,30.09,SW,225,3.5,3.5,62,0.00,OVC,,0.00,97.3,WeatherDisplay:10.37,2013-09-06 07:22:00,
2013-09-06 09:27:00,63.5,49.4,30.09,ESE,112,9.2,9.2,60,0.00,OVC,,0.00,100.0,WeatherDisplay:10.37,2013-09-06 07:27:00,
2013-09-06 09:32:00,63.7,49.5,30.09,ENE,68,5.9,5.9,60,0.00,OVC,,0.00,102.5,WeatherDisplay:10.37,2013-09-06 07:32:00,
2013-09-06 09:37:00,63.9,49.7,30.09,SSE,158,4.6,4.6,60,0.00,OVC,,0.00,104.9,WeatherDisplay:10.37,2013-09-06 07:37:00,
2013-09-06 09:42:00,63.9,49.7,30.09,ESE,112,3.5,3.5,60,0.00,OVC,,0.00,107.4,WeatherDisplay:10.37,2013-09-06 07:42:00,
2013-09-06 09:47:00,64.2,50.0,30.09,NE,45,5.6,5.6,60,0.00,OVC,,0.00,109.7,WeatherDisplay:10.37,2013-09-06 07:47:00,
2013-09-06 09:52:00,64.4,49.8,30.09,SSW,202,3.5,3.5,59,0.00,OVC,,0.00,112.2,WeatherDisplay:10.37,2013-09-06 07:52:00,
2013-09-06 09:57:00,64.6,49.5,30.09,SSE,158,3.8,3.8,58,0.00,OVC,,0.00,114.5,WeatherDisplay:10.37,2013-09-06 07:57:00,
2013-09-06 10:02:00,64.8,49.2,30.09,SSW,202,2.6,2.6,57,0.00,OVC,,0.00,116.7,WeatherDisplay:10.37,2013-09-06 08:02:00,
2013-09-06 10:07:00,64.9,49.8,30.06,ESE,112,4.6,4.6,58,0.00,OVC,,0.00,119.0,WeatherDisplay:10.37,2013-09-06 08:07:00,
2013-09-06 10:12:00,65.3,50.1,30.06,ESE,112,4.6,4.6,58,0.00,OVC,,0.00,121.1,WeatherDisplay:10.37,2013-09-06 08:12:00,
2013-09-06 10:17:00,65.5,49.8,30.06,WSW,248,4.6,4.6,57,0.00,OVC,,0.00,123.3,WeatherDisplay:10.37,2013-09-06 08:17:00,
2013-09-06 10:22:00,65.7,50.0,30.06,SSE,158,4.6,4.6,57,0.00,OVC,,0.00,125.4,WeatherDisplay:10.37,2013-09-06 08:22:00,
2013-09-06 10:27:00,65.8,49.7,30.06,ESE,112,7.8,7.8,56,0.00,OVC,,0.00,127.5,WeatherDisplay:10.37,2013-09-06 08:27:00,
2013-09-06 10:32:00,66.0,48.9,30.06,ESE,112,5.8,5.8,54,0.00,OVC,,0.00,129.5,WeatherDisplay:10.37,2013-09-06 08:32:00,
2013-09-06 10:37:00,66.0,49.4,30.09,ESE,112,3.5,3.5,55,0.00,OVC,,0.00,131.5,WeatherDisplay:10.37,2013-09-06 08:37:00,
2013-09-06 10:42:00,66.2,49.6,30.09,NNE,22,2.3,2.3,55,0.00,OVC,,0.00,133.3,WeatherDisplay:10.37,2013-09-06 08:42:00,
2013-09-06 10:47:00,66.4,49.2,30.09,SSW,202,4.6,4.6,54,0.00,OVC,,0.00,135.1,WeatherDisplay:10.37,2013-09-06 08:47:00,
2013-09-06 10:52:00,66.6,49.4,30.06,SSW,202,3.5,3.5,54,0.00,OVC,,0.00,136.9,WeatherDisplay:10.37,2013-09-06 08:52:00,
2013-09-06 10:57:00,66.7,49.1,30.06,NE,45,3.5,3.5,53,0.00,OVC,,0.00,138.8,WeatherDisplay:10.37,2013-09-06 08:57:00,
2013-09-06 11:02:00,66.9,49.2,30.06,ESE,112,4.6,4.6,53,0.00,OVC,,0.00,140.4,WeatherDisplay:10.37,2013-09-06 09:02:00,
2013-09-06 11:07:00,66.9,48.7,30.06,SSE,158,5.8,5.8,52,0.00,OVC,,0.00,141.9,WeatherDisplay:10.37,2013-09-06 09:07:00,
2013-09-06 11:12:00,66.9,48.7,30.06,SE,135,5.8,5.8,52,0.00,OVC,,0.00,143.6,WeatherDisplay:10.37,2013-09-06 09:12:00,
2013-09-06 11:17:00,66.9,48.2,30.06,ESE,112,5.8,5.8,51,0.00,OVC,,0.00,145.0,WeatherDisplay:10.37,2013-09-06 09:17:00,
2013-09-06 11:22:00,66.9,47.1,30.06,ESE,112,5.9,5.9,49,0.00,OVC,,0.00,146.5,WeatherDisplay:10.37,2013-09-06 09:22:00,
2013-09-06 11:27:00,67.1,48.4,30.06,NNE,22,4.6,4.6,51,0.00,OVC,,0.00,147.8,WeatherDisplay:10.37,2013-09-06 09:27:00,
2013-09-06 11:32:00,67.3,47.5,30.06,WNW,292,4.6,4.6,49,0.00,OVC,,0.00,149.2,WeatherDisplay:10.37,2013-09-06 09:32:00,
2013-09-06 11:37:00,67.5,48.7,30.06,SSW,202,3.5,3.5,51,0.00,OVC,,0.00,150.3,WeatherDisplay:10.37,2013-09-06 09:37:00,
2013-09-06 11:42:00,67.5,47.6,30.06,WNW,292,4.6,4.6,49,0.00,OVC,,0.00,151.5,WeatherDisplay:10.37,2013-09-06 09:42:00,
2013-09-06 11:47:00,67.6,48.3,30.06,WNW,292,3.6,3.6,50,0.00,OVC,,0.00,152.6,WeatherDisplay:10.37,2013-09-06 09:47:00,
2013-09-06 11:52:00,67.8,49.0,30.03,SSW,202,3.5,3.5,51,0.00,OVC,,0.00,153.6,WeatherDisplay:10.37,2013-09-06 09:52:00,
2013-09-06 11:57:00,68.0,47.0,30.03,SW,225,4.3,4.3,47,0.00,OVC,,0.00,154.6,WeatherDisplay:10.37,2013-09-06 09:57:00,
2013-09-06 12:02:00,68.2,48.3,30.03,WNW,292,2.3,2.3,49,0.00,OVC,,0.00,155.4,WeatherDisplay:10.37,2013-09-06 10:02:00,
2013-09-06 12:07:00,68.2,48.8,30.06,ESE,112,4.3,4.3,50,0.00,OVC,,0.00,156.3,WeatherDisplay:10.37,2013-09-06 10:07:00,
2013-09-06 12:12:00,68.4,49.0,30.06,WNW,292,2.9,2.9,50,0.00,OVC,,0.00,156.9,WeatherDisplay:10.37,2013-09-06 10:12:00,
2013-09-06 12:17:00,68.5,48.1,30.06,WSW,248,4.0,4.0,48,0.00,OVC,,0.00,157.6,WeatherDisplay:10.37,2013-09-06 10:17:00,
2013-09-06 12:22:00,68.5,48.1,30.09,WSW,248,3.5,3.5,48,0.00,OVC,,0.00,158.2,WeatherDisplay:10.37,2013-09-06 10:22:00,
2013-09-06 12:27:00,68.7,48.8,30.09,WNW,292,3.5,3.5,49,0.00,OVC,,0.00,158.7,WeatherDisplay:10.37,2013-09-06 10:27:00,
2013-09-06 12:32:00,68.7,48.2,30.09,West,270,3.8,3.8,48,0.00,OVC,,0.00,159.2,WeatherDisplay:10.37,2013-09-06 10:32:00,
2013-09-06 12:37:00,68.9,48.4,30.09,NNW,338,3.5,3.5,48,0.00,OVC,,0.00,159.6,WeatherDisplay:10.37,2013-09-06 10:37:00,
2013-09-06 12:42:00,68.9,47.8,30.09,ESE,112,3.5,3.5,47,0.00,OVC,,0.00,159.9,WeatherDisplay:10.37,2013-09-06 10:42:00,
2013-09-06 12:47:00,69.1,48.0,30.09,WSW,248,4.6,4.6,47,0.00,OVC,,0.00,160.1,WeatherDisplay:10.37,2013-09-06 10:47:00,
2013-09-06 12:52:00,69.3,48.7,30.06,North,0,4.6,4.6,48,0.00,OVC,,0.00,160.2,WeatherDisplay:10.37,2013-09-06 10:52:00,
2013-09-06 12:57:00,69.4,48.3,30.06,SSW,202,4.6,4.6,47,0.00,OVC,,0.00,160.2,WeatherDisplay:10.37,2013-09-06 10:57:00,
2013-09-06 13:02:00,69.6,47.3,30.06,NNW,338,3.5,3.5,45,0.00,OVC,,0.00,160.2,WeatherDisplay:10.37,2013-09-06 11:02:00,
2013-09-06 13:07:00,69.6,48.5,30.06,SSW,202,3.5,3.5,47,0.00,OVC,,0.00,160.1,WeatherDisplay:10.37,2013-09-06 11:07:00,
2013-09-06 13:12:00,69.6,48.5,30.06,NNW,338,4.6,4.6,47,0.00,OVC,,0.00,159.9,WeatherDisplay:10.37,2013-09-06 11:12:00,
2013-09-06 13:17:00,69.6,47.9,30.06,WNW,292,2.3,0.0,46,0.00,OVC,,0.00,159.7,WeatherDisplay:10.37,2013-09-06 11:17:00,
2013-09-06 13:22:00,69.8,48.7,30.06,NE,45,2.3,2.3,47,0.00,OVC,,0.00,159.4,WeatherDisplay:10.37,2013-09-06 11:22:00,
2013-09-06 13:27:00,69.8,48.1,30.06,SSW,202,4.6,4.6,46,0.00,OVC,,0.00,159.1,WeatherDisplay:10.37,2013-09-06 11:27:00,
2013-09-06 13:32:00,70.0,48.2,30.06,WNW,292,4.6,4.6,46,0.00,OVC,,0.00,158.6,WeatherDisplay:10.37,2013-09-06 11:32:00,
2013-09-06 13:37:00,70.2,49.0,30.03,SSE,158,3.5,3.5,47,0.00,OVC,,0.00,158.1,WeatherDisplay:10.37,2013-09-06 11:37:00,
2013-09-06 13:42:00,70.2,49.0,30.03,ESE,112,4.7,4.7,47,0.00,OVC,,0.00,157.4,WeatherDisplay:10.37,2013-09-06 11:42:00,
2013-09-06 13:47:00,70.2,49.0,30.03,NNE,22,4.6,4.6,47,0.00,OVC,,0.00,156.8,WeatherDisplay:10.37,2013-09-06 11:47:00,
2013-09-06 13:52:00,70.3,48.6,30.03,SSW,202,3.6,3.6,46,0.00,OVC,,0.00,156.1,WeatherDisplay:10.37,2013-09-06 11:52:00,
2013-09-06 13:57:00,70.5,48.7,30.03,WNW,292,2.6,2.6,46,0.00,OVC,,0.00,155.3,WeatherDisplay:10.37,2013-09-06 11:57:00,
2013-09-06 14:02:00,70.5,48.1,30.03,NNW,338,3.5,3.5,45,0.00,OVC,,0.00,154.3,WeatherDisplay:10.37,2013-09-06 12:02:00,
2013-09-06 14:07:00,70.7,48.9,30.03,NNW,338,5.8,5.8,46,0.00,OVC,,0.00,153.3,WeatherDisplay:10.37,2013-09-06 12:07:00,
2013-09-06 14:12:00,70.9,49.1,30.03,NNE,22,3.5,3.5,46,0.00,OVC,,0.00,152.3,WeatherDisplay:10.37,2013-09-06 12:12:00,
2013-09-06 14:17:00,70.9,49.1,30.03,ENE,68,3.5,3.5,46,0.00,OVC,,0.00,151.1,WeatherDisplay:10.37,2013-09-06 12:17:00,
2013-09-06 14:22:00,71.1,49.2,30.00,North,0,2.3,2.3,46,0.00,OVC,,0.00,150.0,WeatherDisplay:10.37,2013-09-06 12:22:00,
2013-09-06 14:27:00,71.1,48.6,30.00,NNW,338,5.8,5.8,45,0.00,OVC,,0.00,148.7,WeatherDisplay:10.37,2013-09-06 12:27:00,
2013-09-06 14:32:00,71.2,49.4,30.00,ESE,112,4.6,4.6,46,0.00,OVC,,0.00,147.3,WeatherDisplay:10.37,2013-09-06 12:32:00,
2013-09-06 14:37:00,71.4,49.6,30.00,ENE,68,4.3,4.3,46,0.00,OVC,,0.00,146.0,WeatherDisplay:10.37,2013-09-06 12:37:00,
2013-09-06 14:42:00,71.4,49.0,30.00,WNW,292,2.3,2.3,45,0.00,OVC,,0.00,144.5,WeatherDisplay:10.37,2013-09-06 12:42:00,
2013-09-06 14:47:00,71.6,49.1,30.00,WNW,292,5.8,5.8,45,0.00,OVC,,0.00,143.1,WeatherDisplay:10.37,2013-09-06 12:47:00,
2013-09-06 14:52:00,71.8,49.3,30.00,WNW,292,2.4,2.4,45,0.00,OVC,,0.00,141.6,WeatherDisplay:10.37,2013-09-06 12:52:00,
2013-09-06 14:57:00,72.3,47.9,30.00,North,0,3.5,3.5,42,0.00,OVC,,0.00,139.9,WeatherDisplay:10.37,2013-09-06 12:57:00,
2013-09-06 15:02:00,72.7,49.5,30.00,NNW,338,4.3,4.3,44,0.00,OVC,,0.00,138.1,WeatherDisplay:10.37,2013-09-06 13:02:00,
2013-09-06 15:07:00,73.6,50.9,29.97,West,270,5.8,5.8,45,0.00,OVC,,0.00,136.5,WeatherDisplay:10.37,2013-09-06 13:07:00,
2013-09-06 15:12:00,74.7,51.3,29.97,WNW,292,1.2,1.2,44,0.00,OVC,,0.00,134.6,WeatherDisplay:10.37,2013-09-06 13:12:00,
2013-09-06 15:17:00,75.7,52.3,29.97,NNE,22,2.3,2.3,44,0.00,OVC,,0.00,132.8,WeatherDisplay:10.37,2013-09-06 13:17:00,
2013-09-06 15:22:00,76.8,52.0,29.97,South,180,4.6,4.6,42,0.00,OVC,,0.00,130.8,WeatherDisplay:10.37,2013-09-06 13:22:00,
2013-09-06 15:27:00,77.5,52.0,29.97,East,90,2.9,0.0,41,0.00,OVC,,0.00,128.9,WeatherDisplay:10.37,2013-09-06 13:27:00,
2013-09-06 15:32:00,78.1,52.5,29.97,NE,45,4.6,4.6,41,0.00,OVC,,0.00,126.9,WeatherDisplay:10.37,2013-09-06 13:32:00,
2013-09-06 15:37:00,78.3,51.3,29.97,NNW,338,4.6,4.6,39,0.00,OVC,,0.00,124.7,WeatherDisplay:10.37,2013-09-06 13:37:00,
2013-09-06 15:42:00,78.4,52.1,29.97,East,90,2.0,2.0,40,0.00,OVC,,0.00,122.6,WeatherDisplay:10.37,2013-09-06 13:42:00,
2013-09-06 15:47:00,79.0,52.6,29.97,NNW,338,3.5,3.5,40,0.00,OVC,,0.00,120.5,WeatherDisplay:10.37,2013-09-06 13:47:00,
2013-09-06 15:52:00,79.0,51.2,29.97,NW,315,2.3,2.3,38,0.00,OVC,,0.00,118.3,WeatherDisplay:10.37,2013-09-06 13:52:00,
2013-09-06 15:57:00,79.3,52.2,29.97,ESE,112,2.3,2.3,39,0.00,OVC,,0.00,116.0,WeatherDisplay:10.37,2013-09-06 13:57:00,
2013-09-06 16:02:00,79.5,52.4,29.97,WSW,248,3.5,3.5,39,0.00,OVC,,0.00,113.7,WeatherDisplay:10.37,2013-09-06 14:02:00,
2013-09-06 16:07:00,79.7,51.1,29.97,SW,225,2.3,0.0,37,0.00,OVC,,0.00,111.4,WeatherDisplay:10.37,2013-09-06 14:07:00,
2013-09-06 16:12:00,79.7,51.8,29.97,WSW,248,3.5,0.0,38,0.00,OVC,,0.00,109.1,WeatherDisplay:10.37,2013-09-06 14:12:00,
2013-09-06 16:17:00,80.2,51.6,29.97,NNW,338,2.3,2.3,37,0.00,OVC,,0.00,106.6,WeatherDisplay:10.37,2013-09-06 14:17:00,
2013-09-06 16:22:00,80.4,53.2,29.97,WNW,292,2.3,2.3,39,0.00,OVC,,0.00,104.1,WeatherDisplay:10.37,2013-09-06 14:22:00,
2013-09-06 16:27:00,80.6,51.9,29.97,SSW,202,1.2,1.2,37,0.00,OVC,,0.00,101.6,WeatherDisplay:10.37,2013-09-06 14:27:00,
2013-09-06 16:32:00,80.8,53.5,29.97,NW,315,2.4,2.4,39,0.00,OVC,,0.00,99.2,WeatherDisplay:10.37,2013-09-06 14:32:00,
2013-09-06 16:37:00,80.2,51.6,30.00,NNW,338,1.2,0.0,37,0.00,OVC,,0.00,96.5,WeatherDisplay:10.37,2013-09-06 14:37:00,
2013-09-06 16:42:00,79.2,49.9,30.00,NNE,22,3.8,3.8,36,0.00,OVC,,0.00,94.0,WeatherDisplay:10.37,2013-09-06 14:42:00,
2013-09-06 16:47:00,78.4,50.0,30.00,SSW,202,2.3,2.3,37,0.00,OVC,,0.00,91.4,WeatherDisplay:10.37,2013-09-06 14:47:00,
2013-09-06 16:52:00,77.2,49.6,30.03,ENE,68,4.6,4.6,38,0.00,OVC,,0.00,88.8,WeatherDisplay:10.37,2013-09-06 14:52:00,
2013-09-06 16:57:00,76.5,49.0,30.03,ENE,68,2.3,2.3,38,0.00,OVC,,0.00,86.1,WeatherDisplay:10.37,2013-09-06 14:57:00,
2013-09-06 17:02:00,75.6,49.5,30.03,NNE,22,3.8,3.8,40,0.00,OVC,,0.00,83.3,WeatherDisplay:10.37,2013-09-06 15:02:00,
2013-09-06 17:07:00,74.3,47.7,30.03,NNW,338,2.3,0.0,39,0.00,OVC,,0.00,80.7,WeatherDisplay:10.37,2013-09-06 15:07:00,
2013-09-06 17:12:00,73.6,48.4,30.03,NNW,338,0.0,0.0,41,0.00,OVC,,0.00,78.0,WeatherDisplay:10.37,2013-09-06 15:12:00,
2013-09-06 17:17:00,73.0,47.9,30.03,NNW,338,3.5,3.5,41,0.00,OVC,,0.00,75.2,WeatherDisplay:10.37,2013-09-06 15:17:00,
2013-09-06 17:22:00,72.5,47.5,30.00,NE,45,2.3,2.3,41,0.00,OVC,,0.00,72.6,WeatherDisplay:10.37,2013-09-06 15:22:00,
2013-09-06 17:27:00,72.1,47.8,30.00,NE,45,2.4,2.4,42,0.00,OVC,,0.00,69.8,WeatherDisplay:10.37,2013-09-06 15:27:00,
2013-09-06 17:32:00,71.8,48.1,30.00,SSW,202,3.5,3.5,43,0.00,OVC,,0.00,67.0,WeatherDisplay:10.37,2013-09-06 15:32:00,
2013-09-06 17:37:00,71.4,48.4,30.00,ESE,112,2.3,2.3,44,0.00,OVC,,0.00,64.2,WeatherDisplay:10.37,2013-09-06 15:37:00,
2013-09-06 17:42:00,71.2,48.2,30.00,ESE,112,4.6,4.6,44,0.00,OVC,,0.00,61.5,WeatherDisplay:10.37,2013-09-06 15:42:00,
2013-09-06 17:47:00,70.9,47.9,30.00,SW,225,2.3,2.3,44,0.00,OVC,,0.00,58.7,WeatherDisplay:10.37,2013-09-06 15:47:00,
2013-09-06 17:52:00,70.7,47.7,30.03,NNE,22,3.5,3.5,44,0.00,OVC,,0.00,55.9,WeatherDisplay:10.37,2013-09-06 15:52:00,
2013-09-06 17:57:00,70.3,47.4,30.03,NE,45,3.6,3.6,44,0.00,OVC,,0.00,53.1,WeatherDisplay:10.37,2013-09-06 15:57:00,
2013-09-06 18:02:00,70.2,47.2,30.03,ENE,68,5.8,5.8,44,0.00,OVC,,0.00,50.3,WeatherDisplay:10.37,2013-09-06 16:02:00,
2013-09-06 18:07:00,70.0,47.7,30.00,ENE,68,2.3,2.3,45,0.00,OVC,,0.00,47.5,WeatherDisplay:10.37,2013-09-06 16:07:00,
2013-09-06 18:12:00,69.8,47.5,30.00,NNW,338,1.2,0.0,45,0.00,OVC,,0.00,44.7,WeatherDisplay:10.37,2013-09-06 16:12:00,
2013-09-06 18:17:00,69.6,47.9,30.00,ESE,112,1.2,1.2,46,0.00,OVC,,0.00,41.9,WeatherDisplay:10.37,2013-09-06 16:17:00,
2013-09-06 18:22:00,69.3,47.6,30.00,ESE,112,2.6,2.6,46,0.00,OVC,,0.00,39.1,WeatherDisplay:10.37,2013-09-06 16:22:00,
2013-09-06 18:27:00,69.1,47.4,30.00,ESE,112,2.3,2.3,46,0.00,OVC,,0.00,36.3,WeatherDisplay:10.37,2013-09-06 16:27:00,
2013-09-06 18:32:00,68.9,47.3,30.00,ESE,112,3.5,3.5,46,0.00,OVC,,0.00,33.7,WeatherDisplay:10.37,2013-09-06 16:32:00,
2013-09-06 18:37:00,68.7,47.7,30.03,ESE,112,3.5,3.5,47,0.00,OVC,,0.00,30.9,WeatherDisplay:10.37,2013-09-06 16:37:00,
2013-09-06 18:42:00,68.5,47.5,30.03,NE,45,3.5,3.5,47,0.00,OVC,,0.00,28.1,WeatherDisplay:10.37,2013-09-06 16:42:00,
2013-09-06 18:47:00,68.2,47.7,30.03,ESE,112,1.2,1.2,48,0.00,OVC,,0.00,25.4,WeatherDisplay:10.37,2013-09-06 16:47:00,
2013-09-06 18:52:00,68.0,47.6,30.00,ESE,112,1.2,0.0,48,0.00,OVC,,0.00,22.6,WeatherDisplay:10.37,2013-09-06 16:52:00,
2013-09-06 18:57:00,67.6,47.8,30.00,SSW,202,0.0,0.0,49,0.00,OVC,,0.00,20.0,WeatherDisplay:10.37,2013-09-06 16:57:00,
2013-09-06 19:02:00,67.1,47.3,30.00,SSW,202,0.0,0.0,49,0.00,OVC,,0.00,17.2,WeatherDisplay:10.37,2013-09-06 17:02:00,
2013-09-06 19:07:00,66.7,47.5,29.97,South,180,0.0,0.0,50,0.00,OVC,,0.00,14.5,WeatherDisplay:10.37,2013-09-06 17:07:00,
2013-09-06 19:12:00,66.4,47.2,29.97,South,180,0.0,0.0,50,0.00,OVC,,0.00,11.9,WeatherDisplay:10.37,2013-09-06 17:12:00,
2013-09-06 19:17:00,65.8,47.2,29.97,South,180,0.0,0.0,51,0.00,OVC,,0.00,9.2,WeatherDisplay:10.37,2013-09-06 17:17:00,
2013-09-06 19:22:00,65.5,47.4,29.97,South,180,0.0,0.0,52,0.00,OVC,,0.00,6.6,WeatherDisplay:10.37,2013-09-06 17:22:00,
2013-09-06 19:27:00,65.1,47.1,29.97,South,180,0.0,0.0,52,0.00,OVC,,0.00,4.1,WeatherDisplay:10.37,2013-09-06 17:27:00,
2013-09-06 19:32:00,64.6,47.1,29.97,ENE,68,0.0,0.0,53,0.00,OVC,,0.00,1.5,WeatherDisplay:10.37,2013-09-06 17:32:00,
2013-09-06 19:37:00,64.2,47.2,30.00,ENE,68,2.3,0.0,54,0.00,OVC,,0.00,0.5,WeatherDisplay:10.37,2013-09-06 17:37:00,
2013-09-06 19:42:00,63.7,47.7,30.00,ENE,68,0.0,0.0,56,0.00,OVC,,0.00,0.5,WeatherDisplay:10.37,2013-09-06 17:42:00,
2013-09-06 19:47:00,63.3,47.3,30.00,ENE,68,0.0,0.0,56,0.00,CLR,,0.00,0.0,WeatherDisplay:10.37,2013-09-06 17:47:00,
2013-09-06 19:52:00,63.0,47.0,30.00,ENE,68,0.0,0.0,56,0.00,CLR,,0.00,0.0,WeatherDisplay:10.37,2013-09-06 17:52:00,
2013-09-06 19:57:00,62.6,47.6,30.00,ENE,68,0.0,0.0,58,0.00,CLR,,0.00,0.0,WeatherDisplay:10.37,2013-09-06 17:57:00,
2013-09-06 20:02:00,62.2,47.3,30.00,ENE,68,0.0,0.0,58,0.00,CLR,,0.00,0.0,WeatherDisplay:10.37,2013-09-06 18:02:00,
2013-09-06 20:07:00,61.9,46.9,30.03,ENE,68,0.0,0.0,58,0.00,CLR,,0.00,0.0,WeatherDisplay:10.37,2013-09-06 18:07:00,
2013-09-06 20:12:00,61.7,47.2,30.03,ENE,68,0.0,0.0,59,0.00,CLR,,0.00,0.0,WeatherDisplay:10.37,2013-09-06 18:12:00,
2013-09-06 20:17:00,61.3,48.2,30.03,ENE,68,0.0,0.0,62,0.00,CLR,,0.00,0.0,WeatherDisplay:10.37,2013-09-06 18:17:00,
2013-09-06 20:22:00,61.0,47.9,30.03,ENE,68,0.0,0.0,62,0.00,CLR,,0.00,0.0,WeatherDisplay:10.37,2013-09-06 18:22:00,
2013-09-06 20:27:00,60.6,47.9,30.03,ENE,68,0.0,0.0,63,0.00,CLR,,0.00,0.0,WeatherDisplay:10.37,2013-09-06 18:27:00,
2013-09-06 20:32:00,60.4,48.2,30.03,SSW,202,2.3,0.0,64,0.00,CLR,,0.00,0.0,WeatherDisplay:10.37,2013-09-06 18:32:00,
2013-09-06 20:37:00,60.3,47.6,30.06,SSW,202,0.0,0.0,63,0.00,CLR,,0.00,0.0,WeatherDisplay:10.37,2013-09-06 18:37:00,
2013-09-06 20:42:00,59.9,47.7,30.06,NNE,22,0.0,0.0,64,0.00,CLR,,0.00,0.0,WeatherDisplay:10.37,2013-09-06 18:42:00,
2013-09-06 20:47:00,59.7,47.1,30.06,NNE,22,0.0,0.0,63,0.00,CLR,,0.00,0.0,WeatherDisplay:10.37,2013-09-06 18:47:00,
2013-09-06 20:52:00,59.5,47.3,30.06,NNE,22,0.0,0.0,64,0.00,CLR,,0.00,0.0,WeatherDisplay:10.37,2013-09-06 18:52:00,
2013-09-06 20:57:00,59.4,47.2,30.06,NNE,22,0.0,0.0,64,0.00,CLR,,0.00,0.0,WeatherDisplay:10.37,2013-09-06 18:57:00,
2013-09-06 21:02:00,59.2,47.0,30.06,NNE,22,0.0,0.0,64,0.00,CLR,,0.00,0.0,WeatherDisplay:10.37,2013-09-06 19:02:00,
2013-09-06 21:07:00,59.0,47.2,30.09,NNE,22,0.0,0.0,65,0.00,CLR,,0.00,0.0,WeatherDisplay:10.37,2013-09-06 19:07:00,
2013-09-06 21:12:00,58.8,47.1,30.09,NNE,22,0.0,0.0,65,0.00,CLR,,0.00,0.0,WeatherDisplay:10.37,2013-09-06 19:12:00,
2013-09-06 21:17:00,58.6,47.3,30.09,NNE,22,0.0,0.0,66,0.00,CLR,,0.00,0.0,WeatherDisplay:10.37,2013-09-06 19:17:00,
2013-09-06 21:22:00,58.5,47.1,30.03,NNE,22,0.0,0.0,66,0.00,CLR,,0.00,0.0,WeatherDisplay:10.37,2013-09-06 19:22:00,
2013-09-06 21:27:00,58.3,47.4,30.03,NNE,22,0.0,0.0,67,0.00,CLR,,0.00,0.0,WeatherDisplay:10.37,2013-09-06 19:27:00,
2013-09-06 21:32:00,58.1,48.0,30.03,NNE,22,0.0,0.0,69,0.00,CLR,,0.00,0.0,WeatherDisplay:10.37,2013-09-06 19:32:00,
2013-09-06 21:37:00,57.9,47.4,30.03,NNE,22,0.0,0.0,68,0.00,CLR,,0.00,0.0,WeatherDisplay:10.37,2013-09-06 19:37:00,
2013-09-06 21:42:00,57.7,47.6,30.03,NNE,22,0.0,0.0,69,0.00,CLR,,0.00,0.0,WeatherDisplay:10.37,2013-09-06 19:42:00,
2013-09-06 21:47:00,57.6,47.5,30.03,ESE,112,2.0,2.0,69,0.00,CLR,,0.00,0.0,WeatherDisplay:10.37,2013-09-06 19:47:00,
2013-09-06 21:52:00,57.4,47.3,30.06,ENE,68,2.4,2.4,69,0.00,CLR,,0.00,0.0,WeatherDisplay:10.37,2013-09-06 19:52:00,
2013-09-06 21:57:00,57.2,47.1,30.06,NE,45,0.0,0.0,69,0.00,CLR,,0.00,0.0,WeatherDisplay:10.37,2013-09-06 19:57:00,
2013-09-06 22:02:00,57.2,47.1,30.06,NE,45,0.0,0.0,69,0.00,CLR,,0.00,0.0,WeatherDisplay:10.37,2013-09-06 20:02:00,
2013-09-06 22:07:00,57.0,46.9,30.06,NE,45,0.0,0.0,69,0.00,CLR,,0.00,0.0,WeatherDisplay:10.37,2013-09-06 20:07:00,
2013-09-06 22:12:00,56.8,46.8,30.06,NNE,22,0.0,0.0,69,0.00,CLR,,0.00,0.0,WeatherDisplay:10.37,2013-09-06 20:12:00,
2013-09-06 22:17:00,56.7,47.0,30.06,NNE,22,0.0,0.0,70,0.00,CLR,,0.00,0.0,WeatherDisplay:10.37,2013-09-06 20:17:00,
2013-09-06 22:22:00,56.7,47.0,30.06,NNE,22,0.0,0.0,70,0.00,CLR,,0.00,0.0,WeatherDisplay:10.37,2013-09-06 20:22:00,
2013-09-06 22:27:00,56.5,47.2,30.06,NNE,22,0.0,0.0,71,0.00,CLR,,0.00,0.0,WeatherDisplay:10.37,2013-09-06 20:27:00,
2013-09-06 22:32:00,56.3,47.0,30.06,NNE,22,0.0,0.0,71,0.00,CLR,,0.00,0.0,WeatherDisplay:10.37,2013-09-06 20:32:00,
2013-09-06 22:37:00,56.1,47.2,30.06,North,0,0.0,0.0,72,0.00,CLR,,0.00,0.0,WeatherDisplay:10.37,2013-09-06 20:37:00,
2013-09-06 22:42:00,56.1,47.2,30.06,North,0,0.0,0.0,72,0.00,CLR,,0.00,0.0,WeatherDisplay:10.37,2013-09-06 20:42:00,
2013-09-06 22:47:00,55.9,47.0,30.06,North,0,0.0,0.0,72,0.00,CLR,,0.00,0.0,WeatherDisplay:10.37,2013-09-06 20:47:00,
2013-09-06 22:52:00,55.8,46.9,30.09,North,0,0.0,0.0,72,0.00,CLR,,0.00,0.0,WeatherDisplay:10.37,2013-09-06 20:52:00,
2013-09-06 22:57:00,55.6,46.7,30.09,North,0,0.0,0.0,72,0.00,CLR,,0.00,0.0,WeatherDisplay:10.37,2013-09-06 20:57:00,
2013-09-06 23:02:00,55.4,46.5,30.09,North,0,0.0,0.0,72,0.00,CLR,,0.00,0.0,WeatherDisplay:10.37,2013-09-06 21:02:00,
2013-09-06 23:07:00,55.4,46.5,30.09,North,0,0.0,0.0,72,0.00,CLR,,0.00,0.0,WeatherDisplay:10.37,2013-09-06 21:07:00,
2013-09-06 23:12:00,55.2,46.3,30.09,North,0,0.0,0.0,72,0.00,CLR,,0.00,0.0,WeatherDisplay:10.37,2013-09-06 21:12:00,
2013-09-06 23:17:00,55.0,46.2,30.09,North,0,0.0,0.0,72,0.00,CLR,,0.00,0.0,WeatherDisplay:10.37,2013-09-06 21:17:00,
2013-09-06 23:22:00,54.9,46.0,30.09,North,0,0.0,0.0,72,0.00,CLR,,0.00,0.0,WeatherDisplay:10.37,2013-09-06 21:22:00,
2013-09-06 23:27:00,54.9,46.0,30.09,North,0,0.0,0.0,72,0.00,CLR,,0.00,0.0,WeatherDisplay:10.37,2013-09-06 21:27:00,
2013-09-06 23:32:00,54.7,45.8,30.09,North,0,0.0,0.0,72,0.00,CLR,,0.00,0.0,WeatherDisplay:10.37,2013-09-06 21:32:00,
2013-09-06 23:37:00,54.5,45.7,30.09,North,0,0.0,0.0,72,0.00,CLR,,0.00,0.0,WeatherDisplay:10.37,2013-09-06 21:37:00,
2013-09-06 23:42:00,54.5,45.7,30.09,North,0,0.0,0.0,72,0.00,CLR,,0.00,0.0,WeatherDisplay:10.37,2013-09-06 21:42:00,
2013-09-06 23:47:00,54.3,45.5,30.09,North,0,0.0,0.0,72,0.00,CLR,,0.00,0.0,WeatherDisplay:10.37,2013-09-06 21:47:00,
2013-09-06 23:52:00,54.3,45.5,30.09,ENE,68,2.3,0.0,72,0.00,CLR,,0.00,0.0,WeatherDisplay:10.37,2013-09-06 21:52:00,
2013-09-06 23:57:00,54.1,44.9,30.09,NE,45,1.2,0.0,71,0.00,CLR,,0.00,0.0,WeatherDisplay:10.37,2013-09-06 21:57:00,